SCP
0 0 0 0 0 0 0 0 0 0 0 0 0 0 0 0 0 0 0 0 0 0 0 0 0 0 0 0 0 0 0 0 0 0 0 0 -0 -0 -0 -0 -0 -0 -0
0 0 0 0 0 0 0 0 0 0 0 0 0 0 0 0 0 0 0 0 0 0 0 0 0 0 0 0 0 0 0 0 0 0 0 0 0 0 -0 -0 -0 -0 -0
0 0 0 0 0 0 0 0 0 0 0 0 0 0 0 0 0 0 0 0 0 0 0 0 0 0 0 0 0 0 0 0 0 0 0 -0 0 0 0 0 -0 -0 -0
0 0 0 0 0 0 0 0 0 0 0 0 0 0 0 0 0 0 0 0 0 0 0 0 0 0 0 0 0 0 0 0 0 0 0 -0 0 0 0 0 -0 -0 -0
0 0 0 0 0 0 0 0 0 0 0 0 0 0 0 0 0 0 0 0 0 0 0 0 0 0 0 0 0 0 0 0 0 0 0 0 0 0 0 -0 -0 -0 -0
0 0 0 0 0 0 0 0 0 0 0 0 0 0 0 0 0 0 0 0 0 0 0 0 0 0 0 0 0 0 0 0 0 0 0 0 0 0 0 -0 -0 -0 -0
0 0 0 0 0 0 0 0 0 0 0 0 0 0 0 0 0 0 0 0 0 0 0 0 0 0 0 0 0 0 0 0 0 0 0 0 0 0 0 0 0 0 -0
0 0 0 0 0 0 0 0 0 -0 0 0 0 0 0 0 0 0 0 0 0 0 0 0 0 0 0 0 0 0 0 0 0 0 0 0 0 0 0 0 0 0 0
0 0 0 0 -0 0 -0 -0 -0 0 0 0 0 0 0 0 0 0 0 0 0 0 0 0 0 0 0 0 0 0 0 0 0 0 0 0 0 0 0 0 0 0 0
0 0 0 0 0 0 0 0 0 0 0 0 0 0 0 0 0 0 0 0 0 0 0 0 0 0 0 0 0 0 0 0 0 0 0 0 0 0 0 0 0 0 0
0 0 0 0 0 0 0 0 0 0 0 0 0 0 0 0 0 0 0 0 0 0 0 0 0 0 0 0 0 0 0 0 0 0 0 0 0 0 0 0 0 0 0
0 0 0 0 0 0 0 0 0 0 0 0 0 0 0 0 0 0 0 0 0 0 0 0 0 0 0 0 0 0 0 0 0 0 0 0 0 0 0 0 0 0 0
0 0 0 0 0 0 0 0 0 0 0 0 0 0 0 0 0 0 0 0 0 0 0 0 0 0 0 0 0 0 0 0 0 0 0 0 0 0 0 0 0 0 0
0 0 0 0 0 0 0 0 0 0 0 0 0 0 0 0 0 0 0 0 0 0 0 0 0 0 0 0 0 0 0 0 0 0 0 0 0 0 0 0 0 0 0
0 0 0 0 0 0 0 0 0 0 0 0 0 0 0 0 0 0 0 0 0 0 0 0 0 0 0 0 0 0 0 0 0 0 0 0 1 1 0 0 0 0 0
0 0 0 0 0 0 0 0 0 0 0 0 0 0 0 0 0 0 0 0 0 0 0 0 0 0 0 0 0 0 0 0 0 0 0 0 1 1 0 0 0 0 0
0 0 0 0 0 0 0 0 0 0 0 0 0 0 0 0 0 0 0 0 0 0 0 0 0 0 0 0 0 0 0 0 0 0 0 0 0 1 1 0 0 0 0
0 0 0 0 0 0 0 0 0 0 0 0 0 0 0 0 0 0 0 0 0 0 0 0 0 0 0 0 0 0 0 0 0 0 0 0 0 0 0 0 0 0 0
0 0 0 0 0 0 0 0 0 0 0 0 0 0 0 0 0 0 0 0 0 0 0 0 0 0 0 0 0 0 0 0 0 0 0 0 0 0 0 0 0 0 0
0 0 0 0 0 0 0 0 0 0 0 0 0 0 0 0 0 0 0 0 0 0 0 0 0 0 0 0 0 0 0 0 0 0 0 0 0 0 0 0 0 0 0
0 0 0 0 0 0 0 0 0 0 0 0 0 0 0 0 0 0 0 0 0 0 0 0 0 0 0 0 0 0 0 0 0 0 0 0 0 0 0 0 0 0 0
0 0 0 0 0 0 0 0 0 0 0 0 0 0 0 0 0 0 0 0 0 0 0 0 0 0 0 0 0 0 0 0 0 0 0 0 0 0 0 0 0 0 0
0 0 0 0 0 0 0 0 0 0 0 0 0 0 0 0 0 0 0 0 0 0 0 0 0 0 0 0 0 0 0 0 0 0 0 0 0 0 0 0 0 0 0
0 0 0 0 0 0 0 0 0 0 0 0 0 0 0 0 0 0 0 0 0 0 0 0 0 0 0 0 0 0 0 0 0 0 0 0 0 0 0 0 0 0 0
0 0 0 0 0 0 0 0 0 0 0 0 0 0 0 0 0 0 0 0 0 0 0 0 0 0 0 0 0 0 0 0 0 0 0 0 0 0 0 0 0 0 0
0 0 0 0 0 0 0 0 0 0 0 0 0 0 0 0 0 0 0 0 0 0 0 0 0 0 0 0 0 0 0 0 0 0 0 0 0 0 0 0 0 0 0
Wind_Speed_500mb
5 8 11 10 10 11 9 9 14 12 13 16 17 16 14 13 13 17 16 20 19 21 20 20 20 23 23 24 25 26 26 26 24 25 29 29 28 29 32 32 33 34 33
3 8 11 9 10 10 11 7 7 10 12 13 14 13 15 13 10 9 14 13 16 19 19 21 17 25 20 20 22 23 24 24 23 24 26 28 23 23 28 31 33 34 34
13 7 9 9 10 9 4 3 6 9 11 14 14 14 11 11 11 10 9 11 10 14 16 17 19 24 19 22 24 24 22 20 19 17 18 23 22 19 24 27 30 31 32
15 17 13 8 10 11 7 2 3 4 9 13 14 15 12 9 7 8 10 5 8 8 11 11 11 15 14 17 19 25 24 20 22 20 13 19 16 14 18 21 25 29 30
7 10 11 5 5 6 1 2 2 3 6 8 12 14 12 10 7 4 7 7 5 4 5 6 7 6 7 10 14 24 23 20 16 14 11 14 5 9 10 13 18 21 24
3 11 11 6 6 4 3 3 4 4 5 8 10 11 12 10 10 8 8 6 5 5 3 4 3 3 2 4 9 18 22 18 19 7 6 3 5 10 6 9 11 13 18
9 16 20 22 17 13 10 9 10 12 8 7 10 12 12 12 11 11 11 11 10 9 4 5 7 6 6 3 4 12 17 14 11 4 9 11 8 8 8 3 3 7 10
7 11 14 23 23 25 28 15 18 20 15 10 11 11 12 12 12 12 11 11 12 11 10 9 9 11 9 9 6 8 16 13 9 9 16 16 14 12 12 11 6 2 6
13 9 12 5 11 10 16 18 19 20 22 22 17 14 16 15 14 13 13 13 12 13 12 13 13 10 12 11 10 10 12 14 14 8 14 17 15 17 12 7 4 3 5
24 29 21 11 9 15 9 6 13 15 17 19 18 19 26 24 15 16 17 14 17 16 16 15 14 13 13 14 14 12 12 15 20 11 18 25 27 23 17 7 5 4 7
19 5 17 18 13 18 10 6 8 10 10 12 13 17 12 13 12 18 30 28 24 22 20 19 17 16 15 16 18 17 17 13 22 23 22 22 25 28 24 19 12 7 8
8 12 10 13 12 10 3 2 10 14 16 19 19 21 9 12 7 14 25 29 30 28 25 21 21 20 18 19 20 20 19 16 20 31 30 26 29 34 31 25 24 21 16
7 4 3 5 6 5 7 6 12 20 19 18 22 22 17 16 13 13 16 19 19 30 37 32 24 21 19 19 22 23 22 20 14 25 29 39 43 43 42 32 29 28 25
8 13 10 3 4 7 12 14 15 15 14 17 21 26 29 26 20 24 20 19 17 19 21 30 33 30 29 28 27 29 31 29 28 25 34 33 33 37 34 34 33 31 30
14 16 17 11 11 13 12 17 17 17 13 10 15 24 30 34 37 40 39 34 32 25 21 25 31 28 31 36 38 35 32 36 30 35 38 38 39 41 42 39 36 36 33
14 20 18 15 14 17 20 20 21 19 19 18 19 21 20 19 22 29 37 47 50 48 43 39 35 41 40 37 37 40 41 37 39 42 42 46 48 52 52 44 41 38 38
10 11 10 10 10 12 12 12 14 16 18 19 21 24 29 31 32 31 29 29 29 32 43 50 54 53 47 45 46 42 40 45 47 45 53 48 54 61 59 49 44 41 41
13 9 8 9 11 12 14 16 18 21 21 23 25 31 34 37 38 41 42 40 36 39 43 43 41 41 51 61 58 59 58 52 55 52 47 60 62 65 65 54 48 46 44
6 1 6 10 15 20 23 25 25 23 26 28 31 39 37 36 40 41 45 45 44 39 39 44 46 47 46 42 54 60 70 63 58 55 55 57 65 68 68 61 53 49 48
8 2 5 13 18 26 29 32 27 30 36 40 42 43 39 36 39 48 51 50 45 44 45 43 45 44 48 50 48 51 61 64 71 61 61 55 63 68 70 67 59 56 51
9 12 18 19 24 28 35 38 38 45 53 55 53 50 43 42 43 49 49 49 48 50 45 45 44 48 49 44 53 57 57 58 72 67 61 61 59 66 68 70 67 61 59
19 16 21 27 29 29 35 37 42 50 57 59 56 54 51 54 51 46 46 48 51 55 49 48 48 54 53 47 47 50 45 55 51 57 60 69 60 62 70 74 73 67 62
15 14 23 30 35 32 33 35 44 52 59 61 62 64 62 58 55 53 56 56 52 49 52 52 51 55 56 44 40 39 32 16 34 36 39 38 59 74 67 72 77 74 69
17 18 27 34 36 34 35 40 49 56 62 64 65 66 67 64 62 58 55 55 54 51 56 60 58 58 57 57 51 49 41 51 60 54 53 56 38 39 54 76 83 78 70
28 32 36 36 39 41 38 43 50 59 61 63 63 66 67 68 64 61 56 59 61 57 60 56 55 57 62 67 65 60 64 59 52 59 64 57 65 77 46 37 69 76 73
32 36 35 39 40 37 40 49 58 60 62 65 67 70 74 76 75 72 71 65 62 62 58 61 65 62 54 59 68 68 63 55 62 52 63 73 65 65 69 67 48 48 69
Wind_Direction_500mb
10 158 148 143 123 112 93 75 65 52 47 36 35 47 61 66 69 62 63 68 66 63 76 86 79 77 81 93 97 96 91 86 81 77 68 56 55 60 59 59 59 57 55
351 156 140 136 133 128 116 88 56 45 45 39 38 56 64 63 65 60 55 63 60 59 71 83 88 94 81 92 99 97 95 93 81 77 69 56 46 57 58 60 60 56 51
78 112 116 115 128 125 114 93 51 54 65 59 46 55 62 65 63 59 63 51 63 62 72 78 81 95 92 89 97 101 100 88 65 63 65 48 34 52 58 62 61 58 53
36 105 73 92 131 121 174 164 63 83 74 61 49 50 63 70 64 44 45 88 56 75 81 94 95 103 98 92 101 111 110 89 74 64 40 28 26 44 54 51 55 54 55
14 26 1 26 126 166 247 72 94 114 76 48 41 41 49 53 60 54 48 64 54 50 122 98 116 118 123 101 108 123 122 102 78 74 13 349 350 44 58 45 51 56 57
44 4 344 353 2 356 356 1 356 341 44 34 28 30 34 34 35 34 30 27 10 12 147 197 179 172 148 129 122 140 136 122 97 112 183 260 2 12 33 48 54 58 61
85 44 49 39 20 359 340 336 346 333 354 8 5 8 16 18 17 17 15 14 8 0 325 258 234 227 229 228 153 161 157 138 106 204 270 288 271 288 279 319 29 42 73
5 33 38 24 17 32 34 39 40 25 8 346 343 345 351 359 2 1 359 2 6 2 343 315 279 249 244 238 205 173 179 166 147 238 279 303 309 310 273 261 280 297 120
32 341 302 0 14 27 56 38 29 31 31 25 18 13 358 340 342 349 349 349 348 350 346 337 321 284 261 256 249 229 213 202 185 223 264 281 296 307 309 250 262 200 178
107 83 75 21 27 329 334 331 2 5 23 37 44 32 35 32 6 349 353 356 343 336 327 325 323 312 290 270 263 248 259 231 203 219 257 270 281 296 295 256 223 215 201
175 128 73 69 44 38 351 265 339 340 332 334 333 342 357 5 360 354 348 341 328 328 317 309 306 303 296 282 275 270 278 267 229 224 260 272 275 283 290 265 240 229 217
213 234 277 34 82 93 83 229 280 308 313 317 326 331 329 322 328 347 344 347 344 335 331 311 299 295 290 284 277 269 274 290 259 235 237 250 253 269 277 270 258 247 233
292 292 18 307 327 128 156 240 273 278 274 284 292 302 304 310 295 311 301 302 315 327 330 325 306 292 293 291 280 267 272 271 271 249 251 255 258 273 275 272 259 251 243
98 96 75 343 306 295 309 308 310 291 292 278 295 295 290 285 279 273 276 289 303 290 313 323 320 309 302 294 284 284 273 266 265 265 260 261 261 275 276 267 261 254 248
111 101 85 69 43 40 42 42 33 33 21 331 287 279 276 275 275 278 279 278 279 282 284 278 286 284 287 289 290 282 270 253 241 247 260 258 261 269 274 275 262 256 249
119 110 96 81 67 65 57 41 41 29 25 10 360 349 345 330 307 286 276 272 270 269 267 264 265 270 270 267 269 281 281 271 253 242 248 253 255 260 268 271 265 252 250
95 114 97 84 67 64 59 36 11 17 359 356 345 336 331 327 321 316 310 305 301 289 276 273 268 261 259 256 256 255 260 267 267 258 248 252 255 259 264 266 263 253 248
96 77 70 42 40 29 4 359 346 347 338 330 330 330 326 321 318 318 313 311 309 302 300 298 294 286 272 257 256 258 255 254 258 260 258 253 255 259 263 263 260 254 247
156 34 358 352 354 359 353 348 344 346 341 337 339 336 331 326 324 326 322 319 317 308 300 302 304 304 297 288 275 270 262 261 259 257 256 255 257 258 262 263 258 253 248
138 136 320 322 336 345 349 343 344 345 342 338 336 335 330 327 323 320 317 318 319 316 312 306 303 303 304 305 295 279 270 267 263 254 250 254 256 260 260 262 261 253 246
198 251 278 298 329 340 342 341 340 339 338 334 329 329 330 325 315 309 307 311 312 311 307 309 306 300 298 301 302 299 286 272 261 260 253 250 253 257 259 261 262 260 254
216 255 278 298 316 327 334 335 326 324 325 323 327 328 326 321 319 315 308 301 305 306 300 296 295 295 294 295 298 305 308 299 281 267 266 252 250 252 257 260 259 260 259
238 261 275 295 301 310 318 311 309 314 321 325 324 323 322 323 316 311 305 303 293 295 298 295 292 292 293 287 281 284 291 276 300 285 261 269 258 254 255 257 257 258 257
209 237 265 282 295 299 305 305 311 319 318 319 319 318 318 318 318 316 313 309 303 303 292 290 289 286 283 283 279 272 274 276 283 292 283 267 266 248 248 245 249 254 256
250 261 270 278 285 294 307 305 310 313 312 314 313 312 311 312 311 309 304 297 297 293 285 286 288 286 282 278 276 277 272 272 275 274 285 283 267 265 257 260 244 243 249
256 272 278 288 298 306 303 304 309 312 312 311 310 309 309 309 307 304 303 301 293 293 293 288 283 280 285 281 274 268 266 264 268 275 273 278 277 276 276 255 255 245 240
Wind_Speed_850mb
5 8 11 10 10 11 9 9 14 12 13 16 17 16 14 13 13 17 16 20 19 21 20 20 20 23 23 24 25 26 26 26 24 25 29 29 28 29 32 32 33 34 33
3 8 11 9 10 10 11 7 7 10 12 13 14 13 15 13 10 9 14 13 16 19 19 21 17 25 20 20 22 23 24 24 23 24 26 28 23 23 28 31 33 34 34
13 7 9 9 10 9 4 3 6 9 11 14 14 14 11 11 11 10 9 11 10 14 16 17 19 24 19 22 24 24 22 20 19 17 18 23 22 19 24 27 30 31 32
15 17 13 8 10 11 7 2 3 4 9 13 14 15 12 9 7 8 10 5 8 8 11 11 11 15 14 17 19 25 24 20 22 20 13 19 16 14 18 21 25 29 30
7 10 11 5 5 6 1 2 2 3 6 8 12 14 12 10 7 4 7 7 5 4 5 6 7 6 7 10 14 24 23 20 16 14 11 14 5 9 10 13 18 21 24
3 11 11 6 6 4 3 3 4 4 5 8 10 11 12 10 10 8 8 6 5 5 3 4 3 3 2 4 9 18 22 18 19 7 6 3 5 10 6 9 11 13 18
9 16 20 22 17 13 10 9 10 12 8 7 10 12 12 12 11 11 11 11 10 9 4 5 7 6 6 3 4 12 17 14 11 4 9 11 8 8 8 3 3 7 10
7 11 14 23 23 25 28 15 18 20 15 10 11 11 12 12 12 12 11 11 12 11 10 9 9 11 9 9 6 8 16 13 9 9 16 16 14 12 12 11 6 2 6
13 9 12 5 11 10 16 18 19 20 22 22 17 14 16 15 14 13 13 13 12 13 12 13 13 10 12 11 10 10 12 14 14 8 14 17 15 17 12 7 4 3 5
24 29 21 11 9 15 9 6 13 15 17 19 18 19 26 24 15 16 17 14 17 16 16 15 14 13 13 14 14 12 12 15 20 11 18 25 27 23 17 7 5 4 7
19 5 17 18 13 18 10 6 8 10 10 12 13 17 12 13 12 18 30 28 24 22 20 19 17 16 15 16 18 17 17 13 22 23 22 22 25 28 24 19 12 7 8
8 12 10 13 12 10 3 2 10 14 16 19 19 21 9 12 7 14 25 29 30 28 25 21 21 20 18 19 20 20 19 16 20 31 30 26 29 34 31 25 24 21 16
7 4 3 5 6 5 7 6 12 20 19 18 22 22 17 16 13 13 16 19 19 30 37 32 24 21 19 19 22 23 22 20 14 25 29 39 43 43 42 32 29 28 25
8 13 10 3 4 7 12 14 15 15 14 17 21 26 29 26 20 24 20 19 17 19 21 30 33 30 29 28 27 29 31 29 28 25 34 33 33 37 34 34 33 31 30
14 16 17 11 11 13 12 17 17 17 13 10 15 24 30 34 37 40 39 34 32 25 21 25 31 28 31 36 38 35 32 36 30 35 38 38 39 41 42 39 36 36 33
14 20 18 15 14 17 20 20 21 19 19 18 19 21 20 19 22 29 37 47 50 48 43 39 35 41 40 37 37 40 41 37 39 42 42 46 48 52 52 44 41 38 38
10 11 10 10 10 12 12 12 14 16 18 19 21 24 29 31 32 31 29 29 29 32 43 50 54 53 47 45 46 42 40 45 47 45 53 48 54 61 59 49 44 41 41
13 9 8 9 11 12 14 16 18 21 21 23 25 31 34 37 38 41 42 40 36 39 43 43 41 41 51 61 58 59 58 52 55 52 47 60 62 65 65 54 48 46 44
6 1 6 10 15 20 23 25 25 23 26 28 31 39 37 36 40 41 45 45 44 39 39 44 46 47 46 42 54 60 70 63 58 55 55 57 65 68 68 61 53 49 48
8 2 5 13 18 26 29 32 27 30 36 40 42 43 39 36 39 48 51 50 45 44 45 43 45 44 48 50 48 51 61 64 71 61 61 55 63 68 70 67 59 56 51
9 12 18 19 24 28 35 38 38 45 53 55 53 50 43 42 43 49 49 49 48 50 45 45 44 48 49 44 53 57 57 58 72 67 61 61 59 66 68 70 67 61 59
19 16 21 27 29 29 35 37 42 50 57 59 56 54 51 54 51 46 46 48 51 55 49 48 48 54 53 47 47 50 45 55 51 57 60 69 60 62 70 74 73 67 62
15 14 23 30 35 32 33 35 44 52 59 61 62 64 62 58 55 53 56 56 52 49 52 52 51 55 56 44 40 39 32 16 34 36 39 38 59 74 67 72 77 74 69
17 18 27 34 36 34 35 40 49 56 62 64 65 66 67 64 62 58 55 55 54 51 56 60 58 58 57 57 51 49 41 51 60 54 53 56 38 39 54 76 83 78 70
28 32 36 36 39 41 38 43 50 59 61 63 63 66 67 68 64 61 56 59 61 57 60 56 55 57 62 67 65 60 64 59 52 59 64 57 65 77 46 37 69 76 73
32 36 35 39 40 37 40 49 58 60 62 65 67 70 74 76 75 72 71 65 62 62 58 61 65 62 54 59 68 68 63 55 62 52 63 73 65 65 69 67 48 48 69
Wind_Direction_850mb
10 158 148 143 123 112 93 75 65 52 47 36 35 47 61 66 69 62 63 68 66 63 76 86 79 77 81 93 97 96 91 86 81 77 68 56 55 60 59 59 59 57 55
351 156 140 136 133 128 116 88 56 45 45 39 38 56 64 63 65 60 55 63 60 59 71 83 88 94 81 92 99 97 95 93 81 77 69 56 46 57 58 60 60 56 51
78 112 116 115 128 125 114 93 51 54 65 59 46 55 62 65 63 59 63 51 63 62 72 78 81 95 92 89 97 101 100 88 65 63 65 48 34 52 58 62 61 58 53
36 105 73 92 131 121 174 164 63 83 74 61 49 50 63 70 64 44 45 88 56 75 81 94 95 103 98 92 101 111 110 89 74 64 40 28 26 44 54 51 55 54 55
14 26 1 26 126 166 247 72 94 114 76 48 41 41 49 53 60 54 48 64 54 50 122 98 116 118 123 101 108 123 122 102 78 74 13 349 350 44 58 45 51 56 57
44 4 344 353 2 356 356 1 356 341 44 34 28 30 34 34 35 34 30 27 10 12 147 197 179 172 148 129 122 140 136 122 97 112 183 260 2 12 33 48 54 58 61
85 44 49 39 20 359 340 336 346 333 354 8 5 8 16 18 17 17 15 14 8 0 325 258 234 227 229 228 153 161 157 138 106 204 270 288 271 288 279 319 29 42 73
5 33 38 24 17 32 34 39 40 25 8 346 343 345 351 359 2 1 359 2 6 2 343 315 279 249 244 238 205 173 179 166 147 238 279 303 309 310 273 261 280 297 120
32 341 302 0 14 27 56 38 29 31 31 25 18 13 358 340 342 349 349 349 348 350 346 337 321 284 261 256 249 229 213 202 185 223 264 281 296 307 309 250 262 200 178
107 83 75 21 27 329 334 331 2 5 23 37 44 32 35 32 6 349 353 356 343 336 327 325 323 312 290 270 263 248 259 231 203 219 257 270 281 296 295 256 223 215 201
175 128 73 69 44 38 351 265 339 340 332 334 333 342 357 5 360 354 348 341 328 328 317 309 306 303 296 282 275 270 278 267 229 224 260 272 275 283 290 265 240 229 217
213 234 277 34 82 93 83 229 280 308 313 317 326 331 329 322 328 347 344 347 344 335 331 311 299 295 290 284 277 269 274 290 259 235 237 250 253 269 277 270 258 247 233
292 292 18 307 327 128 156 240 273 278 274 284 292 302 304 310 295 311 301 302 315 327 330 325 306 292 293 291 280 267 272 271 271 249 251 255 258 273 275 272 259 251 243
98 96 75 343 306 295 309 308 310 291 292 278 295 295 290 285 279 273 276 289 303 290 313 323 320 309 302 294 284 284 273 266 265 265 260 261 261 275 276 267 261 254 248
111 101 85 69 43 40 42 42 33 33 21 331 287 279 276 275 275 278 279 278 279 282 284 278 286 284 287 289 290 282 270 253 241 247 260 258 261 269 274 275 262 256 249
119 110 96 81 67 65 57 41 41 29 25 10 360 349 345 330 307 286 276 272 270 269 267 264 265 270 270 267 269 281 281 271 253 242 248 253 255 260 268 271 265 252 250
95 114 97 84 67 64 59 36 11 17 359 356 345 336 331 327 321 316 310 305 301 289 276 273 268 261 259 256 256 255 260 267 267 258 248 252 255 259 264 266 263 253 248
96 77 70 42 40 29 4 359 346 347 338 330 330 330 326 321 318 318 313 311 309 302 300 298 294 286 272 257 256 258 255 254 258 260 258 253 255 259 263 263 260 254 247
156 34 358 352 354 359 353 348 344 346 341 337 339 336 331 326 324 326 322 319 317 308 300 302 304 304 297 288 275 270 262 261 259 257 256 255 257 258 262 263 258 253 248
138 136 320 322 336 345 349 343 344 345 342 338 336 335 330 327 323 320 317 318 319 316 312 306 303 303 304 305 295 279 270 267 263 254 250 254 256 260 260 262 261 253 246
198 251 278 298 329 340 342 341 340 339 338 334 329 329 330 325 315 309 307 311 312 311 307 309 306 300 298 301 302 299 286 272 261 260 253 250 253 257 259 261 262 260 254
216 255 278 298 316 327 334 335 326 324 325 323 327 328 326 321 319 315 308 301 305 306 300 296 295 295 294 295 298 305 308 299 281 267 266 252 250 252 257 260 259 260 259
238 261 275 295 301 310 318 311 309 314 321 325 324 323 322 323 316 311 305 303 293 295 298 295 292 292 293 287 281 284 291 276 300 285 261 269 258 254 255 257 257 258 257
209 237 265 282 295 299 305 305 311 319 318 319 319 318 318 318 318 316 313 309 303 303 292 290 289 286 283 283 279 272 274 276 283 292 283 267 266 248 248 245 249 254 256
250 261 270 278 285 294 307 305 310 313 312 314 313 312 311 312 311 309 304 297 297 293 285 286 288 286 282 278 276 277 272 272 275 274 285 283 267 265 257 260 244 243 249
256 272 278 288 298 306 303 304 309 312 312 311 310 309 309 309 307 304 303 301 293 293 293 288 283 280 285 281 274 268 266 264 268 275 273 278 277 276 276 255 255 245 240